Location: Eastlake (historical)
(39.0077°N, 122.6678°W)
Time: 04:19:36
(UTC+00:00)

CZ-4B R/B - Pass Details

Date: 25 November 2020
Orbit: 485 x 653 km, 97.9° (Epoch: 24 January)

Event Time Altitude Azimuth Distance (km) Brightness Sun altitude
Rises 13:05:16 0° 17° (NNE) 2,984 6.7 -22.9°
Reaches altitude 10° 13:07:33 10° 21° (NNE) 2,067 5.9 -22.5°
Maximum altitude 13:12:00 56° 100° (E) 772 3.8 -21.6°
Drops below altitude 10° 13:16:20 10° 179° (S) 2,011 5.8 -20.8°
Sets 13:18:31 0° 183° (S) 2,895 6.6 -20.4°
